RH
7 8 8 9 9 9 9 9 9 9 10 9 8 8 7 7 8 8 8 9 10 11 11 10 9 8 7 7 6 6 6 5 6 6 6 6 6 7 7 7 7 7 8 8 8 8 8 8 8 8 8 8 8 7 7 7 7 7 7 7 6 6 6 6 6 6 5 5 5 5 5 4 4 4
6 7 7 7 8 8 9 8 8 8 9 9 9 8 7 7 7 7 7 8 9 10 10 11 10 9 8 7 7 7 6 6 6 6 6 5 5 5 5 6 6 6 6 6 6 6 6 6 6 6 6 6 6 6 6 6 6 6 6 6 6 5 5 5 5 5 5 5 4 4 4 4 4 4
4 5 5 6 6 7 7 8 7 7 7 8 9 8 8 7 6 6 6 6 7 8 9 10 10 10 9 8 8 7 7 7 7 7 7 6 6 5 5 5 5 5 5 5 5 5 5 5 5 5 5 5 5 5 5 5 5 5 5 5 5 5 5 5 4 4 4 4 4 4 4 4 3 3
3 3 4 4 5 5 6 6 7 6 6 6 7 7 7 7 6 6 5 5 6 7 7 8 9 9 10 9 8 8 8 7 7 7 7 7 6 6 6 5 5 4 4 4 4 4 4 4 4 4 4 4 4 4 4 4 4 4 4 4 4 4 4 4 4 4 3 3 3 3 3 3 3 3
3 3 3 3 4 4 5 5 5 6 5 5 5 6 6 6 6 6 5 5 5 6 6 7 8 8 9 9 9 8 8 7 7 7 7 7 7 6 6 6 6 5 5 5 4 4 4 4 4 4 4 4 4 3 3 3 3 3 3 3 3 3 3 3 3 3 3 3 3 3 3 3 2 2
2 2 2 3 3 3 4 4 4 5 5 5 4 5 5 5 6 6 5 5 4 5 5 5 6 7 7 8 8 8 8 8 7 7 7 7 6 7 7 7 6 6 6 5 5 5 4 4 4 4 4 4 3 3 3 3 3 3 3 3 3 3 3 3 3 2 3 2 2 2 2 2 2 2
2 2 2 2 2 3 3 3 4 4 4 4 4 4 4 5 5 5 5 5 4 4 4 5 5 6 7 7 7 7 8 7 7 7 7 7 6 6 6 7 7 6 6 6 6 5 5 5 5 5 4 4 4 4 4 4 3 3 4 3 3 3 3 3 3 2 2 2 2 2 2 2 2 2
2 2 2 2 2 2 2 2 3 3 3 3 4 4 4 4 4 5 5 5 5 4 4 4 5 5 6 6 6 7 7 7 7 7 6 6 6 6 6 6 6 6 6 6 6 6 6 5 5 5 5 5 5 5 4 4 4 4 4 4 4 3 3 3 3 3 3 3 2 2 2 2 2 2
2 2 2 2 2 2 2 2 2 2 2 3 3 3 3 3 4 4 4 5 5 4 4 4 4 5 5 6 6 6 6 7 7 6 7 6 6 6 6 5 6 6 6 6 6 6 6 6 6 6 6 6 5 5 5 5 5 5 4 4 4 4 4 3 3 3 3 3 3 3 3 3 3 2
2 2 2 2 2 2 2 2 2 2 2 2 2 2 2 3 3 3 3 4 4 4 4 4 4 4 5 5 6 6 6 7 6 6 6 6 6 6 5 5 5 5 5 5 5 6 6 5 6 5 6 6 6 6 6 6 5 5 5 5 4 4 4 4 4 3 3 3 3 3 3 3 3 3
2 2 2 2 2 2 2 2 2 2 2 2 2 2 2 2 2 3 3 3 3 4 4 4 4 4 4 5 5 6 6 6 6 6 6 6 6 6 6 5 5 5 5 5 5 5 5 5 5 5 5 5 6 6 6 6 6 6 5 5 5 5 4 4 4 4 4 4 3 3 3 3 3 3
2 2 2 2 2 2 2 2 2 2 2 2 2 2 2 2 2 2 2 2 3 3 3 3 3 3 4 4 4 5 5 5 6 6 6 6 6 6 6 5 5 5 5 5 5 4 4 5 5 5 5 5 5 5 5 6 6 6 6 5 5 5 5 4 4 4 4 4 4 4 3 3 3 3
2 3 3 2 2 2 2 2 2 2 2 2 2 2 2 2 2 2 2 2 2 2 3 3 3 3 3 3 4 4 4 4 5 5 5 5 5 5 5 5 5 5 5 5 4 4 4 4 4 4 5 5 5 5 5 5 5 5 5 5 5 5 5 5 4 4 4 4 4 4 4 4 4 4
3 3 3 3 3 3 3 2 2 2 2 2 2 2 2 2 2 2 2 2 2 2 2 2 2 3 3 3 3 3 4 4 4 4 5 5 5 5 4 5 5 5 5 5 4 4 3 3 4 4 4 4 4 4 5 4 4 5 5 5 5 5 5 5 4 4 4 4 4 4 4 4 4 4
3 3 3 3 3 3 3 3 3 3 3 3 2 2 2 2 2 2 2 2 2 2 2 2 2 2 2 3 3 3 3 3 3 4 4 4 4 4 4 4 4 4 5 4 4 4 3 3 3 3 3 4 4 4 4 4 4 4 4 4 4 4 4 4 4 4 4 4 4 4 4 4 4 4
3 3 3 3 3 3 3 3 3 3 3 3 3 2 2 2 2 2 2 2 2 2 2 2 2 2 2 2 3 3 3 3 3 3 4 4 4 4 4 4 4 4 4 4 4 4 3 3 3 3 3 4 4 4 4 4 4 4 4 4 4 4 4 4 4 4 4 4 4 4 4 4 4 4
3 3 3 3 3 3 3 3 3 3 3 3 3 2 3 2 2 2 2 2 2 2 2 2 2 3 2 2 3 3 2 3 3 3 3 3 3 3 3 3 3 3 3 3 4 4 3 4 3 3 4 3 3 4 4 4 4 4 4 4 4 4 4 4 4 4 4 4 4 4 4 4 4 4
3 3 3 3 3 3 3 3 2 3 3 3 3 3 2 2 3 3 2 2 2 2 2 2 2 2 2 2 2 2 2 2 3 3 3 3 3 3 3 3 3 3 3 3 3 3 3 3 3 3 3 3 3 3 3 4 4 3 4 4 3 4 4 4 4 4 4 4 4 4 4 4 4 4
3 3 2 3 3 2 2 2 2 2 2 2 3 3 2 3 3 3 3 3 3 3 3 3 3 3 2 3 2 2 3 2 2 3 2 2 3 2 2 3 3 3 3 2 3 3 3 3 3 3 3 3 3 3 3 4 3 3 4 3 3 4 3 4 4 4 4 5 4 4 4 4 4 3
2 2 2 2 2 2 2 2 2 2 2 2 2 2 2 3 3 3 3 3 3 3 3 3 3 3 3 3 3 2 3 3 2 3 3 3 3 2 2 3 2 3 3 2 3 3 3 3 3 3 3 3 3 3 3 3 3 3 3 3 3 3 3 3 4 3 4 4 4 4 4 3 4 3
2 2 2 2 2 2 2 2 2 2 2 2 2 2 2 2 2 3 2 2 3 3 3 3 3 3 3 3 3 3 2 3 3 3 3 3 3 3 3 2 2 2 2 3 3 3 3 3 3 3 3 3 3 3 3 3 3 3 3 3 3 3 3 3 3 3 3 3 3 3 3 3 3 3
2 2 2 2 2 2 2 2 2 2 2 2 2 2 2 2 2 3 2 2 3 2 2 3 3 3 3 3 3 3 3 3 3 3 3 3 2 3 3 2 2 2 2 2 3 3 3 3 3 3 3 3 3 3 3 3 3 2 2 3 3 3 3 3 3 3 3 3 3 3 3 3 3 3
2 2 2 3 2 2 2 2 2 2 2 2 2 2 2 2 2 2 2 2 2 2 3 3 3 3 3 3 3 3 3 3 3 3 3 3 3 3 3 3 3 2 3 3 2 3 3 2 3 3 3 3 3 2 3 2 2 2 2 2 3 3 3 3 3 3 2 3 3 3 3 3 2 3
2 2 2 3 2 2 2 2 2 2 2 2 2 2 2 2 2 2 2 2 3 3 3 3 3 3 3 3 3 3 3 4 4 3 4 3 3 3 3 3 3 3 3 3 2 3 2 2 3 2 2 3 2 2 3 2 2 3 2 2 3 2 2 2 2 3 2 2 3 2 3 3 2 3
3 3 3 3 3 2 3 3 2 3 2 2 2 2 2 2 2 2 3 3 3 3 3 3 3 3 3 3 3 3 4 4 3 3 3 3 3 3 3 3 3 3 3 2 2 3 2 2 3 2 2 3 2 3 3 2 3 3 2 3 2 2 2 2 2 2 2 2 2 2 2 3 3 3
3 3 2 3 3 2 3 3 2 3 3 2 3 3 3 3 3 3 3 3 3 3 3 3 3 3 3 3 3 3 3 3 3 3 4 4 3 3 3 3 3 3 3 3 2 3 3 3 3 3 3 3 3 3 3 3 3 2 2 2 2 2 2 2 2 2 2 2 3 2 2 3 3 2
3 3 3 3 3 2 2 3 3 3 3 3 3 3 3 3 3 3 3 3 3 3 3 3 3 3 4 3 4 4 3 4 4 4 4 4 3 3 3 3 3 3 3 3 3 3 3 3 3 3 3 3 3 3 3 3 3 2 2 2 2 2 2 2 2 2 2 2 2 2 2 3 2 2
3 3 3 3 3 3 3 3 3 3 3 3 3 3 3 3 3 3 3 3 3 3 3 3 3 3 4 4 4 4 4 4 4 4 4 4 4 4 4 3 4 3 3 3 3 3 3 3 3 3 3 3 3 3 3 3 3 2 2 2 2 2 2 2 2 2 2 2 2 2 2 2 2 2
3 2 3 3 2 3 3 2 3 3 2 3 3 3 3 3 3 3 3 3 3 3 3 3 3 3 4 4 4 4 4 4 4 4 4 4 4 4 4 3 4 3 3 3 3 3 3 3 3 3 3 3 3 3 3 3 3 3 2 2 2 2 2 2 2 2 2 2 2 3 3 2 3 3
3 3 3 3 3 3 3 3 3 3 2 3 3 3 3 3 3 3 3 3 4 4 4 4 4 4 4 4 4 4 4 4 4 4 4 4 4 4 4 4 4 3 3 3 3 3 3 3 3 3 3 3 3 3 3 3 3 3 2 2 2 2 2 2 2 2 2 2 2 3 3 2 3 3
3 3 3 3 3 3 3 3 3 3 3 3 3 3 3 3 3 3 3 3 4 4 4 4 4 4 4 4 4 4 4 4 4 4 4 4 4 4 4 4 4 3 3 3 3 3 3 3 3 3 3 3 3 3 3 3 3 3 3 2 2 3 2 2 2 2 2 2 3 3 3 3 3 2
3 3 3 3 3 3 3 3 3 3 3 3 3 3 3 3 3 3 3 3 4 3 4 4 4 4 4 4 4 4 4 4 4 4 4 4 4 4 4 3 3 3 3 3 3 3 3 3 3 3 3 3 3 3 3 3 3 3 3 3 3 3 3 2 2 2 2 2 3 3 3 3 2 2
3 3 3 3 3 3 3 3 3 3 3 3 3 3 3 3 3 3 3 3 4 4 4 4 4 4 4 4 4 4 4 4 4 4 4 4 3 3 3 3 3 3 3 3 3 3 3 3 3 3 3 3 3 3 3 4 4 4 4 4 3 3 3 3 3 3 3 2 3 3 3 3 2 2
4 3 4 3 3 3 3 3 3 3 3 3 3 3 3 3 3 4 4 4 4 4 4 4 4 4 4 4 4 4 4 4 4 4 4 4 3 3 3 3 3 3 3 3 3 3 3 4 3 4 4 4 4 4 4 4 4 4 4 5 4 3 3 3 3 3 3 2 2 3 3 3 2 2
4 4 4 4 4 4 4 4 4 4 4 4 4 4 4 4 4 4 4 4 4 4 4 4 4 4 4 4 4 4 4 4 4 4 4 4 4 4 4 4 4 4 4 4 4 4 4 4 4 4 4 4 4 4 4 5 5 5 5 5 5 4 4 3 3 3 3 2 2 3 3 3 3 2
5 5 4 4 4 4 4 4 4 4 4 4 4 4 4 4 4 4 4 4 4 4 4 4 4 4 4 5 5 4 5 5 5 5 5 5 5 5 5 5 5 5 5 5 5 5 5 5 5 5 4 5 5 4 4 4 4 5 5 4 4 4 4 3 3 2 2 2 2 2 3 3 3 2
6 6 6 6 6 5 5 6 5 5 5 5 5 5 5 5 5 5 5 5 5 5 5 5 6 6 6 6 6 6 6 6 6 6 6 6 6 6 5 6 5 5 5 5 5 5 5 5 5 5 5 5 5 4 4 4 4 4 5 4 4 4 3 3 3 2 2 2 2 2 2 3 3 3
7 7 7 7 7 7 7 7 7 7 7 7 7 7 7 7 7 7 7 7 7 7 7 7 7 7 7 7 7 7 7 7 7 7 7 7 7 7 6 6 6 6 6 5 5 5 5 5 5 5 5 5 4 4 4 3 3 3 3 4 5 5 3 3 3 2 2 2 1 2 2 2 3 3
9 8 8 9 9 9 9 9 9 10 10 9 10 10 9 10 10 9 10 9 9 9 9 9 9 9 8 9 9 8 9 9 8 8 8 7 7 7 6 6 6 5 5 5 4 4 4 4 4 4 4 4 4 4 4 3 3 2 2 3 5 6 5 5 4 3 3 2 1 2 2 2 2 2
9 9 9 9 9 10 10 10 10 10 10 10 10 9 9 9 9 9 9 9 9 9 9 8 8 8 8 8 8 8 8 8 7 7 7 6 6 6 5 5 5 4 4 4 4 4 4 4 4 4 3 4 4 4 4 4 3 3 2 2 3 4 5 6 6 5 4 3 2 2 2 2 2 2
9 9 9 9 9 9 9 9 8 8 8 8 8 8 8 8 8 8 8 7 7 7 7 7 7 7 7 7 7 7 7 6 6 7 6 6 6 6 6 6 6 5 5 4 4 4 4 4 4 4 4 4 4 3 4 4 3 3 2 2 2 2 4 5 6 6 5 4 3 2 2 2 2 3
9 9 9 9 9 9 8 9 8 8 8 8 8 9 9 9 9 9 9 9 9 9 9 9 9 9 9 9 9 9 9 8 8 8 8 7 7 7 6 6 6 5 5 5 4 4 4 4 4 4 4 4 4 3 4 4 3 3 3 2 2 2 2 3 4 5 5 5 3 3 3 2 3 3
10 10 10 10 11 11 11 12 12 12 13 13 13 13 14 14 14 14 13 13 13 13 13 13 12 12 12 11 11 10 10 9 9 8 8 8 7 6 6 6 5 5 5 5 4 4 4 4 4 4 4 4 4 4 4 4 4 4 3 2 2 2 2 2 3 3 4 4 4 3 3 2 3 3
12 13 14 15 16 17 17 17 17 17 18 18 18 18 18 18 18 18 17 16 16 15 15 14 13 13 12 12 11 11 10 9 9 8 7 7 7 6 6 6 5 5 5 5 5 4 4 4 4 4 4 4 4 4 5 5 4 4 3 3 2 2 2 2 2 3 3 3 3 3 3 2 2 3
18 20 21 21 22 22 22 22 22 21 21 21 21 21 20 20 19 19 18 17 16 15 14 13 12 12 11 11 10 9 9 8 8 8 7 7 7 7 7 6 6 6 6 5 6 5 4 4 4 4 4 4 4 4 4 4 4 4 4 3 3 2 2 2 2 2 3 3 3 3 3 2 2 3
Wind_Speed
126 127 126 126 127 128 129 130 130 130 130 130 130 129 127 127 127 125 124 124 126 128 129 130 130 131 131 131 132 132 132 133 134 134 135 136 137 138 138 138 138 137 137 137 137 136 136 136 135 135 135 135 134 134 134 133 133 133 132 132 132 131 131 131 130 130 130 129 129 128 127 127 126 125
122 123 124 125 126 127 129 130 131 131 131 132 132 131 129 127 126 124 123 123 124 126 128 129 130 131 131 131 131 130 130 130 131 131 132 134 135 136 137 137 137 137 137 137 137 137 137 137 137 136 136 136 136 135 135 135 134 134 134 133 133 133 133 132 132 132 131 131 130 129 129 128 127 126
115 117 120 122 123 125 127 130 131 131 131 131 132 132 131 129 126 124 122 122 122 123 125 127 129 131 131 131 131 130 129 129 129 129 130 132 133 134 134 135 136 136 136 137 137 137 137 137 137 137 137 137 136 136 136 136 135 135 135 135 134 134 134 134 133 133 132 131 131 130 129 129 127 127
105 108 111 115 118 121 125 128 130 131 131 130 131 132 131 130 128 125 123 121 120 121 124 125 127 129 130 130 130 130 130 129 128 128 129 131 132 132 132 133 134 135 135 135 136 136 136 136 136 136 136 136 136 136 136 136 136 135 135 135 135 134 134 134 133 133 132 131 131 130 129 129 128 127
98 100 102 105 110 114 119 124 127 129 130 129 129 129 129 129 128 127 125 123 121 121 122 123 125 126 128 129 129 129 130 130 129 128 129 130 131 130 130 131 132 133 133 133 134 134 134 135 135 135 135 135 135 135 135 135 135 135 134 134 134 134 134 133 133 132 132 131 130 130 129 128 128 127
93 94 96 98 101 106 111 116 120 124 126 127 127 126 126 126 126 126 126 124 122 121 121 121 123 124 126 128 129 129 129 129 128 128 129 130 130 129 129 129 130 131 131 132 132 132 132 132 132 133 133 133 133 133 133 133 133 133 133 133 133 133 132 132 132 132 131 130 130 129 129 128 128 127
88 90 91 93 96 100 105 109 113 117 120 122 123 122 122 122 123 124 125 124 123 122 119 119 120 122 124 126 128 129 129 128 128 128 128 128 128 128 128 128 129 129 130 130 130 130 130 130 130 130 130 131 131 131 131 131 130 130 130 130 131 131 131 131 130 130 130 129 128 128 127 127 127 126
84 85 86 88 91 95 99 102 105 109 112 114 115 116 117 117 118 120 123 123 123 122 120 117 118 120 122 124 126 127 128 128 127 127 127 127 127 127 126 126 127 128 129 129 129 129 129 128 128 128 128 128 129 129 128 128 128 128 128 128 129 129 129 129 129 128 128 127 126 126 125 125 125 124
79 80 81 84 87 90 92 95 97 101 103 105 107 109 109 110 113 115 118 120 121 122 120 117 116 118 120 122 124 125 126 127 127 127 127 127 126 126 126 125 125 126 126 127 127 127 127 127 127 126 127 127 127 127 126 126 126 126 126 126 127 127 127 127 127 126 126 125 124 123 123 123 122 122
76 76 77 79 82 85 86 88 90 93 96 98 100 101 102 103 106 109 111 114 116 118 119 118 117 117 118 120 122 123 125 126 127 127 126 126 126 125 125 124 124 124 124 125 125 125 126 125 125 125 125 125 125 125 124 124 125 125 125 125 125 125 125 125 125 124 124 123 122 122 121 121 121 121
73 73 74 76 78 80 82 84 86 88 90 91 92 93 94 96 99 102 105 107 109 112 114 116 116 116 117 118 120 121 122 124 125 125 126 125 125 125 124 124 124 124 124 123 123 124 124 124 124 124 124 123 123 122 122 123 123 124 124 124 124 124 123 123 123 123 122 122 121 121 120 120 120 119
70 71 72 73 75 76 78 80 82 84 85 86 85 86 87 89 92 95 99 102 104 106 108 111 112 113 115 116 118 119 120 120 122 123 125 125 125 125 125 124 124 123 123 123 123 123 123 123 123 123 122 121 121 121 121 121 122 123 123 123 122 122 122 121 121 121 121 121 120 119 119 118 117 117
67 69 70 71 73 74 75 76 78 79 81 81 81 81 82 83 86 89 93 96 99 101 103 105 107 108 110 112 114 115 116 117 119 122 124 124 124 124 124 123 123 122 122 123 124 123 122 122 122 122 121 120 120 120 120 121 121 121 121 121 121 120 120 120 120 120 119 119 118 117 116 115 115 115
64 66 67 68 70 71 72 73 74 76 77 78 78 78 79 80 81 84 87 89 92 95 97 99 101 102 103 105 108 110 112 113 116 118 120 122 123 123 122 121 121 121 122 123 123 123 122 121 121 120 120 119 120 119 120 120 120 120 120 120 119 119 119 119 119 118 117 116 115 114 114 113 113 114
62 64 64 65 66 67 69 70 72 73 74 74 75 75 76 77 78 80 81 83 86 89 91 93 95 96 96 98 102 104 106 108 110 112 115 119 121 121 120 119 119 120 121 122 122 122 121 121 119 118 118 119 119 119 118 118 118 118 119 119 119 119 119 118 118 117 115 114 113 112 112 112 113 113
60 61 62 63 64 65 66 68 69 70 70 71 72 73 73 74 75 76 78 79 82 84 86 88 89 89 91 93 95 98 100 102 104 107 111 115 116 117 117 117 118 118 119 119 120 120 120 118 117 117 117 117 117 116 116 116 117 118 118 118 119 119 119 118 117 115 113 112 111 111 111 112 113 114
57 59 60 61 62 64 65 66 66 67 68 69 70 70 70 70 72 73 75 76 78 80 82 83 83 84 87 89 90 92 95 97 98 102 106 110 111 112 113 114 115 115 114 115 115 116 116 115 114 114 113 113 113 113 113 115 116 116 117 117 117 117 117 116 114 112 111 110 110 111 112 113 114 115
56 57 58 59 60 62 63 64 65 65 66 67 68 68 68 68 69 71 72 73 75 77 78 78 79 81 84 85 86 88 90 91 93 97 101 104 106 107 109 110 110 110 110 110 110 110 111 110 109 109 109 109 109 109 111 112 113 114 115 115 115 114 113 111 110 109 109 110 111 112 113 114 114 115
54 55 56 57 58 59 60 61 62 62 63 65 66 66 66 66 67 69 70 71 72 73 74 75 76 78 79 80 82 84 85 86 89 92 96 98 100 102 104 105 105 106 106 105 105 105 106 105 104 104 104 105 105 106 108 109 110 111 112 112 112 111 109 108 107 108 109 110 112 112 113 113 114 114
51 51 52 53 54 55 56 58 58 58 59 61 62 63 64 65 66 67 68 70 70 70 71 71 73 74 75 77 79 80 82 83 85 88 90 93 95 97 98 99 100 102 102 101 100 101 102 101 99 99 101 102 102 104 105 107 107 108 108 109 108 107 106 106 107 108 109 110 110 110 111 111 112 114
47 48 48 48 49 51 53 54 54 55 56 56 57 59 61 62 64 65 67 67 67 68 69 69 70 72 74 75 76 77 77 78 80 83 86 89 91 91 92 94 96 97 96 96 96 96 97 96 95 96 98 99 99 101 103 103 104 104 104 104 104 104 104 105 106 106 107 108 108 108 109 110 111 113
46 46 44 45 48 51 51 52 51 52 53 54 55 56 57 58 60 62 64 64 64 65 67 68 69 71 72 73 73 72 72 74 76 80 83 85 86 86 88 90 92 92 91 91 91 91 92 92 92 94 96 96 96 97 98 99 99 100 100 99 99 100 101 102 103 104 105 105 105 105 106 107 109 109
44 43 42 44 48 50 49 49 49 50 51 52 52 52 52 53 55 57 59 59 60 61 63 65 66 68 68 68 68 68 69 71 73 76 77 78 79 81 83 85 86 86 86 87 86 86 86 88 90 92 93 93 92 93 94 95 95 95 95 94 95 97 98 99 100 101 101 101 101 101 102 103 104 104
41 40 41 43 46 47 46 46 47 48 49 48 47 47 48 48 49 51 52 53 54 57 60 63 64 64 64 64 65 66 67 69 70 71 72 72 73 75 77 79 80 82 83 83 81 81 82 85 87 88 88 87 88 90 91 92 93 92 91 91 93 95 96 97 97 97 96 95 96 96 97 98 99 99
38 38 39 41 44 44 44 44 44 46 45 44 43 44 44 44 45 46 47 49 51 55 58 59 59 59 60 61 63 64 65 67 67 67 67 67 69 71 73 75 77 79 79 78 77 77 79 81 83 84 83 81 83 86 89 90 90 90 89 89 90 92 93 93 92 92 91 91 91 92 92 94 95 96
34 36 37 39 41 42 42 41 42 42 42 41 41 42 41 41 42 43 44 46 48 51 53 53 53 54 55 57 59 61 62 63 62 61 62 64 66 68 70 71 72 73 73 72 73 74 75 77 79 79 77 76 78 81 84 86 88 87 86 86 87 88 88 89 88 87 86 86 87 88 89 91 93 94
30 32 34 36 38 38 39 39 38 38 38 38 38 38 38 39 40 41 42 43 45 47 48 48 49 50 51 53 55 56 57 57 57 58 60 62 63 64 65 65 66 66 66 67 68 69 71 73 75 74 73 73 74 77 80 82 84 85 85 84 84 84 85 85 85 84 83 83 84 85 86 88 90 90
26 28 30 32 33 34 35 35 35 35 35 35 34 34 35 36 37 39 40 41 43 44 45 45 45 46 48 50 51 52 53 54 56 57 58 58 59 59 59 60 60 60 61 62 64 65 67 69 70 70 70 70 72 74 76 78 80 83 83 82 80 81 82 83 82 81 80 80 80 81 83 84 86 87
22 23 25 27 28 29 30 31 32 32 32 32 32 33 34 34 36 37 38 39 40 41 42 42 43 43 45 46 47 49 50 51 53 53 53 54 55 55 56 56 57 57 58 60 61 63 64 66 67 68 68 69 70 72 73 75 77 79 79 78 78 79 79 79 77 76 76 76 76 78 80 81 83 84
18 19 20 21 22 24 26 27 28 29 30 30 31 31 32 33 34 36 37 38 39 40 40 41 41 42 43 44 46 47 48 49 50 50 51 52 52 53 54 54 55 56 57 58 60 61 63 64 65 66 67 67 68 69 70 71 74 76 74 73 75 77 77 75 73 71 71 72 73 75 77 78 80 82
14 15 16 17 18 20 21 23 25 26 27 28 28 29 30 31 32 34 35 37 38 39 39 40 41 41 42 44 45 46 47 48 48 49 50 50 51 52 52 53 54 55 56 57 58 59 61 62 63 63 64 64 65 66 66 67 70 72 70 68 70 73 76 75 71 69 68 69 70 72 74 76 78 80
10 11 12 13 15 16 18 20 21 23 24 25 26 27 28 29 31 32 33 34 35 37 37 38 39 40 41 42 43 44 45 46 47 47 48 49 50 50 51 52 52 53 54 55 56 57 58 59 59 60 61 61 62 62 62 64 66 67 66 66 67 70 73 74 72 69 67 67 67 68 71 74 76 78
6 7 8 10 11 13 14 16 17 19 20 22 23 24 26 27 28 29 31 32 33 34 35 36 37 38 39 40 41 42 43 44 45 46 46 47 47 48 49 49 50 51 51 52 53 54 54 55 55 56 57 58 59 59 59 60 63 63 63 64 65 67 71 72 70 69 68 66 64 64 68 73 76 77
3 4 5 7 8 9 11 12 14 15 17 18 20 21 23 24 25 27 28 29 30 31 32 33 34 35 36 37 38 39 40 41 42 42 43 44 44 45 45 46 46 47 47 48 49 50 50 51 52 53 54 55 57 57 57 58 61 61 60 61 63 66 69 69 68 67 68 66 62 61 65 71 76 78
1 2 3 4 5 6 7 8 10 12 13 15 16 18 19 20 22 23 24 25 26 27 28 29 30 31 32 33 34 35 36 37 38 38 39 40 40 41 41 42 43 43 44 45 46 47 48 49 50 52 53 54 56 57 56 56 58 59 58 59 62 64 67 69 68 67 67 65 62 59 61 68 76 79
3 2 2 3 4 4 5 6 7 9 10 12 13 14 15 16 18 19 20 21 22 24 25 26 27 28 29 30 30 31 32 33 34 35 36 37 38 38 39 40 41 42 43 44 45 46 47 48 50 51 52 53 55 57 56 55 56 57 58 60 62 63 65 68 70 69 67 64 61 58 59 65 74 78
4 4 3 3 3 4 5 5 6 6 7 9 10 11 12 13 14 15 17 18 19 20 22 23 24 25 26 27 28 29 30 31 32 33 34 35 36 37 39 40 41 42 43 43 45 46 47 48 49 50 52 53 54 56 58 57 56 56 56 59 63 64 64 66 69 69 67 63 60 58 58 62 70 76
4 4 4 4 4 4 4 5 5 5 6 7 8 9 10 11 12 13 15 16 17 18 20 21 22 23 25 26 27 28 29 30 31 32 33 35 36 37 39 40 41 42 43 44 45 46 47 48 49 50 52 53 54 56 58 60 60 57 53 54 59 63 64 64 65 67 66 62 57 56 57 59 64 68
4 3 3 3 2 2 2 3 3 4 5 6 7 8 9 10 12 13 14 15 16 18 19 20 21 23 24 25 26 27 28 30 31 33 34 36 37 39 40 41 42 43 44 45 46 47 48 48 50 50 51 53 54 55 56 58 61 59 54 51 52 57 61 63 63 64 65 62 56 53 53 54 57 59
3 2 2 1 1 1 2 3 4 5 6 7 8 9 10 11 12 13 14 15 17 18 19 20 22 23 24 25 27 28 30 31 33 34 36 37 38 39 40 41 43 44 45 45 46 46 47 48 49 50 50 51 51 52 53 56 59 60 56 50 49 51 54 58 60 62 65 64 60 55 52 50 51 52
2 1 1 1 2 3 4 5 6 7 7 8 9 10 11 12 13 14 15 16 18 19 20 21 22 24 25 26 28 29 30 32 33 34 36 37 38 39 40 41 42 43 45 45 45 45 45 46 47 48 49 50 50 50 52 54 56 58 57 53 49 49 50 52 56 59 63 66 64 59 54 50 49 51
1 1 1 2 2 3 4 5 6 7 8 9 10 11 12 13 14 15 16 17 18 19 21 22 23 24 26 27 28 30 31 33 34 35 36 37 38 39 40 41 42 43 44 44 44 44 44 45 46 47 48 49 49 49 51 53 54 56 57 54 51 49 48 48 51 55 60 65 66 63 58 52 50 53
1 1 1 2 3 4 5 6 7 8 9 9 10 11 12 13 14 16 17 18 19 20 22 23 24 26 27 28 30 31 32 33 35 36 37 38 39 40 40 41 42 43 43 44 44 45 44 44 45 46 48 49 48 48 50 53 54 55 56 54 52 50 48 47 47 50 55 60 64 64 60 52 49 53
1 1 2 3 4 5 6 7 8 9 10 11 11 13 14 15 16 17 18 20 21 22 23 25 26 27 28 30 31 32 33 34 36 37 37 38 39 40 41 42 43 43 44 44 45 46 45 45 45 46 47 48 48 47 49 52 53 54 55 55 53 51 49 47 46 47 51 54 57 61 61 52 46 51
1 2 3 4 5 6 7 8 9 10 11 12 13 14 15 16 18 19 20 21 22 24 25 26 27 28 30 31 32 33 34 35 36 37 38 39 40 41 42 42 43 44 44 45 46 47 47 46 46 46 47 48 48 47 48 51 53 54 55 55 54 52 50 49 47 46 48 50 50 55 60 53 44 47
Wind_Direction
246 247 247 246 246 247 247 248 248 248 249 249 249 249 248 246 246 245 244 244 245 246 248 249 249 249 249 248 248 248 248 249 249 250 250 251 251 251 251 251 251 252 252 252 252 252 252 252 253 253 253 253 253 254 254 254 254 255 255 255 255 255 256 256 256 256 256 256 256 256 256 256 256 256
245 246 246 246 246 246 247 248 248 248 248 248 249 250 250 249 247 246 245 244 244 245 246 247 248 249 249 249 249 249 248 249 249 249 250 250 250 251 251 252 252 252 252 252 252 252 253 253 253 253 253 254 254 254 254 255 255 255 255 255 256 256 256 256 256 256 257 257 257 257 257 257 257 256
244 244 245 245 245 245 246 247 248 248 248 248 248 249 250 250 250 248 247 245 244 244 245 245 247 248 249 250 250 250 249 249 249 249 249 250 250 250 251 251 252 252 252 252 252 253 253 253 253 253 254 254 254 254 255 255 255 255 256 256 256 256 256 256 257 257 257 257 257 257 257 257 257 257
246 245 245 244 244 244 245 246 247 248 249 249 248 248 249 250 250 250 249 247 246 245 245 245 246 247 248 249 249 250 250 249 249 249 249 249 249 250 250 251 251 251 252 252 252 253 253 253 253 254 254 254 254 255 255 255 255 256 256 256 256 256 257 257 257 257 257 257 257 257 257 258 257 257
249 247 246 245 244 244 244 245 246 247 248 249 249 249 249 249 250 251 251 250 248 246 245 245 245 246 247 248 248 249 249 250 250 249 249 249 249 249 250 250 251 251 252 252 252 252 253 253 253 254 254 254 254 255 255 255 256 256 256 256 256 257 257 257 257 257 257 257 257 257 258 258 258 257
249 248 247 246 245 244 244 244 245 246 247 249 249 250 250 249 250 250 251 251 250 248 247 246 246 246 247 248 248 248 249 249 250 250 250 249 249 249 250 250 251 251 252 252 252 252 253 253 253 253 254 254 254 255 255 255 256 256 256 256 256 257 257 257 257 257 257 257 257 257 257 257 257 257
249 248 247 246 245 245 244 245 245 245 246 247 249 249 250 250 249 249 250 251 251 250 248 247 246 246 247 247 248 249 249 249 249 250 250 250 250 250 250 250 251 251 252 252 252 252 252 253 253 253 254 254 254 254 255 255 255 256 256 256 256 256 256 256 257 257 257 257 257 257 257 257 257 257
248 247 247 247 246 245 245 245 245 245 246 247 247 248 249 249 249 248 249 249 250 250 249 247 247 247 247 247 248 249 249 249 249 250 250 251 251 251 251 250 250 251 252 252 252 252 253 253 253 253 254 254 254 254 255 255 255 255 255 256 256 256 256 256 256 256 256 256 256 256 256 256 256 256
247 247 246 246 246 246 246 245 245 245 246 246 246 246 247 247 247 247 247 247 248 249 249 248 247 246 247 247 248 248 249 249 250 250 250 250 251 251 251 251 251 251 251 252 252 253 253 253 253 254 254 254 254 255 255 255 255 255 255 255 255 256 256 256 256 256 256 256 256 256 256 256 256 256
248 247 246 245 246 246 246 246 246 245 245 245 245 245 245 245 245 245 245 246 246 246 247 248 247 246 246 246 247 248 248 249 250 250 250 250 251 251 252 252 252 252 252 252 252 252 253 253 253 253 254 254 254 255 255 255 255 255 255 255 255 255 256 256 256 256 256 256 256 256 256 255 255 255
248 248 247 246 245 245 245 246 246 246 246 245 245 244 243 243 243 243 243 244 244 244 245 245 246 245 245 245 246 246 247 248 249 250 250 250 251 251 252 252 252 252 252 252 252 252 252 252 253 253 253 253 254 254 254 255 255 255 255 255 255 255 256 256 256 256 256 256 256 255 255 255 255 255
248 248 247 247 246 246 245 245 245 246 246 246 245 244 244 243 242 242 242 242 243 243 243 243 244 244 244 245 245 246 246 247 248 249 250 250 250 250 250 251 251 252 252 252 252 252 251 252 252 252 253 253 253 253 254 254 254 255 255 255 255 255 255 255 255 255 255 255 255 255 255 255 255 255
247 247 246 247 247 247 246 245 245 245 246 245 245 244 243 242 241 241 242 242 242 243 243 243 243 243 243 244 245 245 246 246 247 248 249 249 249 249 250 250 251 251 252 252 252 252 251 251 251 252 252 253 253 253 253 253 253 254 254 255 255 255 255 255 255 255 255 255 255 255 255 255 255 255
248 247 246 245 245 246 246 246 246 246 246 245 245 244 243 242 241 241 241 242 242 243 243 243 243 243 243 243 244 244 245 245 246 247 248 249 249 249 249 250 250 250 251 251 252 252 252 251 251 252 252 252 252 252 253 253 253 254 254 254 254 255 255 255 255 255 255 255 255 255 255 255 255 254
248 247 247 246 245 244 245 245 245 245 245 245 245 243 243 242 241 240 240 241 242 242 242 243 243 243 242 242 242 243 244 244 245 246 247 248 249 249 249 249 249 249 250 250 251 251 252 252 252 252 252 252 252 252 253 253 253 254 254 254 254 254 254 254 254 254 254 255 255 255 255 254 254 254
247 247 246 246 245 244 244 243 244 244 244 244 244 243 242 242 241 240 240 240 240 241 242 242 242 242 242 242 242 242 242 243 243 244 245 246 247 248 249 249 249 249 249 249 250 251 252 252 252 252 252 252 253 253 253 254 254 254 253 253 254 254 254 254 254 254 255 255 255 255 254 254 254 253
246 246 245 245 244 244 244 243 243 243 243 244 244 243 242 241 241 241 240 239 239 240 241 241 241 241 241 241 241 241 241 242 242 243 244 245 246 247 248 249 249 250 250 250 250 251 252 253 253 254 254 254 254 254 254 253 254 254 253 253 253 253 253 254 254 255 255 255 255 255 254 254 253 253
245 245 245 245 244 244 244 243 243 243 243 244 244 244 244 242 242 241 241 240 239 239 240 240 240 240 240 240 240 240 241 241 241 242 243 244 246 247 247 248 249 250 251 251 251 252 252 253 254 254 254 254 254 254 253 253 253 253 253 253 253 253 253 254 254 254 254 254 254 254 253 253 253 253
246 245 245 245 245 246 245 245 244 243 243 243 244 244 244 244 243 242 242 241 241 240 240 241 241 241 241 241 240 240 240 240 241 241 243 244 245 246 247 248 249 250 251 251 251 252 252 253 253 253 254 254 253 253 253 253 252 252 252 253 253 253 253 253 253 253 253 252 252 253 253 253 254 254
248 248 247 247 247 247 248 247 247 246 244 243 243 243 243 243 243 243 242 241 242 241 241 241 242 242 242 241 241 241 240 240 241 242 243 244 245 246 247 248 249 250 250 250 251 251 252 252 253 253 253 253 253 253 253 252 252 252 252 252 252 253 253 252 252 252 252 252 252 253 253 253 254 254
253 252 251 251 251 250 249 248 248 247 247 246 245 243 241 241 241 241 241 241 241 241 241 241 241 241 242 241 241 241 241 241 241 242 243 244 244 245 246 248 248 249 250 250 250 250 251 252 252 252 252 252 252 252 252 252 252 252 252 252 252 252 252 252 252 252 252 252 252 252 252 252 253 253
255 254 254 253 253 251 250 249 248 248 247 247 245 244 242 240 239 239 240 240 240 241 241 241 241 241 242 242 243 243 242 242 242 243 243 244 245 246 247 247 249 250 250 250 250 250 251 252 252 252 252 252 252 252 253 253 253 253 253 252 252 252 252 252 251 251 251 251 251 252 252 252 253 254
255 255 253 251 251 251 251 251 251 250 248 247 246 245 244 242 240 239 239 240 240 241 242 242 242 242 243 244 244 244 243 243 243 244 245 246 247 247 248 248 249 250 250 250 250 250 250 251 251 251 251 252 252 253 253 253 253 253 253 252 252 252 251 251 251 250 250 251 251 252 252 253 254 254
255 254 252 250 250 251 251 251 251 251 251 250 249 248 246 244 242 241 240 239 238 239 240 240 241 242 243 243 244 243 243 244 244 244 245 246 247 247 248 249 249 250 250 250 249 250 250 250 250 250 251 251 252 253 253 253 254 253 253 252 252 251 251 251 251 251 251 252 252 252 253 253 254 253
254 253 251 249 250 250 250 250 250 250 251 251 250 249 247 245 243 241 240 238 238 238 239 240 241 242 243 243 243 243 243 244 244 245 245 246 246 247 247 248 248 248 249 250 250 250 250 250 251 251 251 251 252 253 254 254 253 253 253 252 251 251 252 252 252 252 252 252 252 252 252 252 252 251
252 251 249 248 248 249 249 249 249 249 250 250 248 247 245 243 241 240 239 238 238 239 241 242 243 243 243 242 243 243 244 245 246 246 246 246 246 246 247 248 249 249 250 251 251 250 250 251 251 252 252 251 251 252 253 254 254 253 252 252 252 252 252 252 252 252 251 251 251 251 251 251 251 251
250 250 249 248 247 248 248 248 248 248 248 248 247 246 244 242 240 238 238 237 238 239 240 240 240 241 241 242 242 243 244 245 246 245 245 246 246 247 248 249 250 251 252 252 252 251 251 251 252 252 251 251 251 251 252 253 254 254 252 251 251 252 252 252 252 252 251 251 251 251 251 252 252 252
249 248 247 247 246 247 247 247 247 247 247 246 245 244 242 240 238 237 237 237 237 238 239 239 239 239 240 241 242 243 244 244 245 245 246 247 248 249 250 250 251 251 251 251 251 251 250 250 250 251 250 249 249 250 250 251 253 254 254 253 252 252 252 252 252 252 252 252 253 253 253 253 253 252
246 245 245 245 246 246 246 246 246 245 244 243 242 240 238 237 236 236 236 237 237 238 239 239 239 239 240 241 242 242 243 244 244 245 246 247 247 248 249 249 249 249 249 249 248 248 248 248 248 248 248 248 247 248 249 250 251 252 254 255 256 254 253 252 252 253 253 253 254 254 254 253 253 253
242 241 241 242 244 245 246 247 246 245 244 242 241 239 237 236 235 234 234 235 235 236 237 238 238 238 239 240 241 242 243 243 244 245 245 245 246 247 247 247 247 247 247 247 247 247 247 248 248 248 248 247 248 248 249 250 252 253 253 255 257 258 257 255 253 252 252 253 253 253 253 253 253 253
241 240 239 239 240 241 242 243 244 244 243 242 241 240 238 237 236 236 236 236 236 236 237 237 237 238 239 240 241 242 243 244 244 245 245 246 246 246 246 246 246 246 246 247 247 247 248 248 248 249 249 249 249 250 250 250 252 253 254 253 255 257 258 257 255 252 251 251 252 253 253 253 253 253
240 239 239 238 238 237 237 238 239 239 239 240 240 239 239 238 237 237 237 238 238 239 239 240 240 240 241 241 242 243 244 245 245 246 246 247 247 247 247 247 247 247 247 247 247 248 248 249 249 249 250 250 250 250 251 251 252 254 254 253 253 254 256 257 257 255 252 251 252 254 255 254 254 254
239 238 236 234 234 234 235 235 235 235 235 236 237 237 238 237 237 237 237 237 238 239 240 241 241 242 242 242 243 244 245 245 246 247 247 248 248 248 248 248 248 248 248 248 249 249 249 250 250 250 250 250 250 250 250 251 253 254 255 255 254 254 255 255 256 256 255 252 251 252 255 256 255 254
227 231 230 228 227 229 231 232 233 233 233 233 233 234 235 236 236 236 236 236 237 238 239 240 241 242 243 243 244 245 245 246 246 247 247 248 248 248 248 248 249 249 249 249 249 249 250 250 250 251 251 251 251 251 250 251 253 253 254 255 256 256 257 257 256 256 256 255 253 253 255 257 257 255
160 192 208 212 213 216 221 225 228 230 231 231 231 232 233 235 235 236 237 237 238 238 239 240 241 242 243 243 244 245 245 246 246 247 247 247 247 248 248 248 248 248 248 249 249 249 250 250 250 251 251 252 252 252 251 252 254 255 254 255 256 257 259 259 258 257 256 256 255 253 254 257 258 257
102 120 148 175 186 193 197 204 212 218 221 223 225 226 228 230 232 233 234 235 236 237 238 239 240 240 241 242 243 244 244 245 246 246 247 247 247 248 248 248 248 248 248 249 249 250 251 252 252 253 254 254 254 255 253 252 253 255 257 257 256 256 257 259 260 259 257 256 255 253 251 254 258 260
106 113 122 137 156 167 175 181 190 200 207 212 215 218 221 224 227 229 231 232 233 234 235 236 237 238 239 240 241 243 244 245 246 247 248 249 249 250 250 250 251 251 251 251 251 251 252 253 253 254 256 256 256 258 257 255 252 252 255 258 259 258 257 257 259 259 258 256 254 251 248 249 255 260
105 111 119 128 138 151 162 169 177 187 196 203 208 212 216 219 222 225 228 230 232 234 235 237 238 239 240 242 243 245 246 248 249 250 252 252 253 253 254 254 254 254 253 253 253 253 253 254 254 254 256 257 257 258 259 259 256 251 248 251 258 261 261 260 260 261 261 258 253 249 247 247 251 257
91 96 104 116 125 138 162 177 186 196 205 211 215 219 222 225 227 229 232 234 236 238 239 241 242 244 246 247 249 250 252 253 254 254 255 256 256 256 256 257 257 256 256 256 256 256 256 256 256 256 255 256 257 257 258 260 259 256 248 242 246 255 260 263 264 265 265 264 259 253 250 249 251 255
72 72 70 86 132 199 216 220 223 225 227 230 232 233 235 238 239 242 243 245 247 248 249 251 252 253 254 255 255 256 257 257 257 258 258 258 258 259 259 259 259 259 258 257 257 257 257 258 258 258 257 257 257 258 259 260 262 261 256 247 240 242 250 256 260 263 266 267 265 261 257 255 255 256
78 87 110 206 221 226 229 231 234 236 239 242 244 246 249 250 252 254 255 256 257 259 259 260 261 261 261 261 261 261 262 261 261 261 261 261 261 261 262 262 261 261 261 261 260 259 259 260 260 260 260 260 259 260 261 261 262 263 262 256 248 242 242 246 251 255 260 264 266 266 263 261 262 263
106 139 206 230 238 243 246 248 250 252 253 255 256 258 260 261 263 264 265 266 266 267 267 267 267 266 266 266 266 266 266 265 265 265 265 265 265 265 265 265 265 265 265 265 264 263 262 262 262 262 262 262 262 262 262 262 262 263 263 261 257 251 246 244 245 247 252 258 263 265 264 262 263 265
128 201 235 248 252 258 260 262 263 264 265 266 268 269 270 271 272 272 272 272 272 272 271 270 270 270 269 269 269 269 269 269 269 269 269 269 269 269 269 269 269 269 269 268 268 266 265 264 263 263 263 263 263 263 263 264 264 264 264 264 262 258 254 250 246 245 247 252 258 263 264 262 260 260
223 250 258 264 266 268 269 271 271 274 275 276 277 278 278 279 278 278 277 276 275 275 274 273 273 273 272 272 272 272 272 272 272 272 272 272 272 272 272 272 272 271 271 271 270 269 268 266 265 264 264 264 263 262 263 263 264 264 265 265 264 263 261 257 253 249 248 250 254 260 263 261 257 256
282 278 278 278 276 277 278 278 278 280 280 281 282 282 281 281 280 279 278 278 277 276 276 275 275 274 274 274 274 274 274 274 274 274 274 274 274 274 274 273 273 273 273 272 272 271 270 269 268 266 265 264 263 262 261 261 262 263 264 265 265 265 264 263 259 255 253 252 252 257 262 261 255 254